When you browse on this site, cookies collect data to enhance your experience and personalize the content and advertising you see.
Visit our Privacy Policy to learn more. By continuing to use the site, you agree to this use of cookies and data.
  • In Schweiz
  • Länderverzeichnis
  • Für 7 Tage
  • Wassertemperatur
  • Satellitenkarten
  • Wetterkarte
  • Widgets
  • user-avatar
    Anmelden

    Stündliche Wetter Uste

    Heute, 17 November, Samstag

    Zeit Temperatur Niederschläge Wind Luftdruck Luftfeuchtigkeit
    00:00 -3°C° 0 mm 1 m/S 774 mmHg 24%
    01:00 -3°C° 0 mm 1 m/S 773 mmHg 24%
    02:00 -3°C° 0 mm 1 m/S 773 mmHg 24%
    03:00 -3°C° 0 mm 1 m/S 773 mmHg 27%
    04:00 -3°C° 0 mm 1 m/S 772 mmHg 27%
    05:00 -6°C° 0 mm 2 m/S 772 mmHg 28%
    06:00 -6°C° 0 mm 2 m/S 771 mmHg 29%
    07:00 -5°C° 0 mm 2 m/S 771 mmHg 29%
    08:00 -5°C° 0 mm 2 m/S 770 mmHg 30%
    09:00 -6°C° 0 mm 3 m/S 770 mmHg 30%
    10:00 -4°C° 0 mm 3 m/S 770 mmHg 29%
    11:00 -2°C° 0 mm 3 m/S 769 mmHg 28%
    12:00 -2°C° 0 mm 4 m/S 769 mmHg 27%
    13:00 -2°C° 0 mm 4 m/S 768 mmHg 28%
    14:00 -2°C° 0 mm 4 m/S 767 mmHg 29%
    15:00 0°C° 0 mm 3 m/S 766 mmHg 31%
    16:00 -1°C° 0 mm 3 m/S 765 mmHg 33%
    17:00 -1°C° 0 mm 3 m/S 765 mmHg 35%
    18:00 -3°C° 0 mm 4 m/S 764 mmHg 36%
    19:00 -3°C° 0 mm 4 m/S 764 mmHg 39%
    20:00 -3°C° 0 mm 4 m/S 763 mmHg 41%
    21:00 -3°C° 0 mm 4 m/S 762 mmHg 43%
    22:00 -3°C° 0 mm 4 m/S 761 mmHg 45%
    23:00 -3°C° 0 mm 4 m/S 761 mmHg 48%

    Morgen, 18 November, Sonntag

    Zeit Temperatur Niederschläge Wind Luftdruck Luftfeuchtigkeit
    00:00 -3°C° 0 mm 4 m/S 760 mmHg 50%
    01:00 -3°C° 0.2 mm 4 m/S 760 mmHg 58%
    02:00 -3°C° 0.2 mm 4 m/S 759 mmHg 65%
    03:00 -3°C° 0.2 mm 4 m/S 759 mmHg 73%
    04:00 -3°C° 0.1 mm 4 m/S 759 mmHg 77%
    05:00 -2°C° 0.1 mm 3 m/S 758 mmHg 82%
    06:00 -2°C° 0.1 mm 3 m/S 758 mmHg 86%
    07:00 -2°C° 0.1 mm 3 m/S 758 mmHg 86%
    08:00 -2°C° 0.1 mm 3 m/S 757 mmHg 85%
    09:00 -2°C° 0.1 mm 3 m/S 757 mmHg 85%
    10:00 -1°C° 0.1 mm 3 m/S 757 mmHg 83%
    11:00 -1°C° 0.1 mm 3 m/S 757 mmHg 82%
    12:00 -1°C° 0.1 mm 2 m/S 758 mmHg 81%
    13:00 -1°C° 0 mm 2 m/S 758 mmHg 82%
    14:00 -1°C° 0 mm 2 m/S 758 mmHg 83%
    15:00 -1°C° 0 mm 2 m/S 758 mmHg 84%
    16:00 -1°C° 0 mm 2 m/S 758 mmHg 86%
    17:00 -1°C° 0 mm 2 m/S 758 mmHg 88%
    18:00 +1°C° 0 mm 1 m/S 759 mmHg 90%
    19:00 +1°C° 0 mm 1 m/S 759 mmHg 91%
    20:00 +1°C° 0 mm 1 m/S 759 mmHg 92%
    21:00 0°C° 0 mm 1 m/S 759 mmHg 93%
    22:00 0°C° 0 mm 1 m/S 759 mmHg 93%
    23:00 0°C° 0 mm 1 m/S 760 mmHg 94%

    übermorgen, 19 November, Montag

    Zeit Temperatur Niederschläge Wind Luftdruck Luftfeuchtigkeit
    00:00 0°C° 0 mm 1 m/S 760 mmHg 94%
    01:00 0°C° 0 mm 1 m/S 760 mmHg 94%
    02:00 0°C° 0 mm 1 m/S 761 mmHg 94%
    03:00 0°C° 0 mm 1 m/S 761 mmHg 94%
    04:00 0°C° 0 mm 1 m/S 761 mmHg 94%
    05:00 0°C° 0 mm 1 m/S 761 mmHg 95%
    06:00 0°C° 0 mm 1 m/S 762 mmHg 95%
    07:00 0°C° 0 mm 1 m/S 762 mmHg 95%
    08:00 0°C° 0 mm 1 m/S 762 mmHg 95%
    09:00 0°C° 0 mm 1 m/S 762 mmHg 95%
    10:00 +1°C° 0 mm 1 m/S 763 mmHg 91%
    11:00 +1°C° 0 mm 0 m/S 763 mmHg 88%
    12:00 +2°C° 0 mm 0 m/S 764 mmHg 85%
    13:00 +2°C° 0 mm 1 m/S 764 mmHg 87%
    14:00 +2°C° 0 mm 1 m/S 764 mmHg 89%
    15:00 +2°C° 0 mm 1 m/S 764 mmHg 91%
    16:00 +1°C° 0 mm 1 m/S 764 mmHg 92%
    17:00 0°C° 0 mm 1 m/S 764 mmHg 94%
    18:00 0°C° 0 mm 1 m/S 764 mmHg 95%
    19:00 0°C° 0 mm 1 m/S 764 mmHg 95%
    20:00 -2°C° 0 mm 2 m/S 765 mmHg 96%
    21:00 -2°C° 0 mm 2 m/S 765 mmHg 96%
    22:00 -2°C° 0 mm 2 m/S 765 mmHg 96%
    23:00 -2°C° 0 mm 2 m/S 765 mmHg 96%

    20 November, Dienstag

    Zeit Temperatur Niederschläge Wind Luftdruck Luftfeuchtigkeit
    00:00 -1°C° 0 mm 2 m/S 765 mmHg 96%
    01:00 -1°C° 0 mm 2 m/S 765 mmHg 95%
    02:00 -1°C° 0 mm 2 m/S 765 mmHg 95%
    03:00 +1°C° 0 mm 1 m/S 765 mmHg 94%
    04:00 0°C° 0 mm 1 m/S 765 mmHg 94%
    05:00 0°C° 0 mm 1 m/S 765 mmHg 94%
    06:00 0°C° 0 mm 1 m/S 764 mmHg 94%
    07:00 0°C° 0 mm 1 m/S 764 mmHg 93%
    08:00 -2°C° 0 mm 2 m/S 764 mmHg 93%
    09:00 -2°C° 0 mm 2 m/S 764 mmHg 92%
    10:00 0°C° 0 mm 1 m/S 764 mmHg 88%
    11:00 +1°C° 0 mm 1 m/S 764 mmHg 83%
    12:00 +1°C° 0 mm 1 m/S 764 mmHg 79%
    13:00 +1°C° 0 mm 1 m/S 763 mmHg 79%
    14:00 -1°C° 0 mm 2 m/S 763 mmHg 79%
    15:00 -1°C° 0 mm 2 m/S 763 mmHg 78%
    16:00 -2°C° 0 mm 2 m/S 762 mmHg 80%
    17:00 -2°C° 0 mm 2 m/S 762 mmHg 81%
    18:00 -2°C° 0 mm 2 m/S 762 mmHg 83%
    19:00 -3°C° 0 mm 2 m/S 762 mmHg 84%
    20:00 -3°C° 0 mm 2 m/S 761 mmHg 85%
    21:00 -4°C° 0 mm 2 m/S 761 mmHg 86%
    22:00 -4°C° 0 mm 2 m/S 761 mmHg 86%
    23:00 -4°C° 0 mm 2 m/S 761 mmHg 87%

    21 November, Mittwoch

    Zeit Temperatur Niederschläge Wind Luftdruck Luftfeuchtigkeit
    00:00 -4°C° 0 mm 2 m/S 760 mmHg 87%
    01:00 -4°C° 0 mm 2 m/S 760 mmHg 88%
    02:00 -5°C° 0 mm 2 m/S 760 mmHg 88%
    03:00 -5°C° 0 mm 2 m/S 760 mmHg 89%
    04:00 -6°C° 0 mm 3 m/S 759 mmHg 90%
    05:00 -6°C° 0 mm 3 m/S 759 mmHg 90%
    06:00 -6°C° 0 mm 3 m/S 759 mmHg 91%
    07:00 -6°C° 0 mm 3 m/S 759 mmHg 90%
    08:00 -6°C° 0 mm 3 m/S 758 mmHg 89%
    09:00 -6°C° 0 mm 3 m/S 758 mmHg 89%
    10:00 -5°C° 0 mm 3 m/S 758 mmHg 86%
    11:00 -5°C° 0 mm 3 m/S 758 mmHg 83%
    12:00 -4°C° 0 mm 3 m/S 758 mmHg 80%
    13:00 -4°C° 0 mm 3 m/S 758 mmHg 80%
    14:00 -4°C° 0 mm 3 m/S 758 mmHg 80%
    15:00 -2°C° 0 mm 3 m/S 758 mmHg 79%
    16:00 -2°C° 0 mm 3 m/S 758 mmHg 80%
    17:00 -2°C° 0 mm 3 m/S 758 mmHg 81%
    18:00 -2°C° 0 mm 2 m/S 759 mmHg 82%
    19:00 -2°C° 0 mm 3 m/S 759 mmHg 82%
    20:00 -4°C° 0 mm 3 m/S 759 mmHg 83%
    21:00 -4°C° 0 mm 3 m/S 759 mmHg 84%
    22:00 -4°C° 0 mm 3 m/S 759 mmHg 85%
    23:00 -5°C° 0 mm 3 m/S 759 mmHg 86%

    22 November, Donnerstag

    Zeit Temperatur Niederschläge Wind Luftdruck Luftfeuchtigkeit
    00:00 -5°C° 0 mm 3 m/S 759 mmHg 88%
    01:00 -6°C° 0 mm 3 m/S 758 mmHg 88%
    02:00 -6°C° 0 mm 3 m/S 758 mmHg 89%
    03:00 -6°C° 0 mm 2 m/S 758 mmHg 90%
    04:00 -7°C° 0 mm 3 m/S 758 mmHg 89%
    05:00 -7°C° 0 mm 3 m/S 757 mmHg 88%
    06:00 -7°C° 0 mm 3 m/S 757 mmHg 88%
    07:00 -7°C° 0 mm 3 m/S 756 mmHg 87%
    08:00 -7°C° 0 mm 4 m/S 756 mmHg 86%
    09:00 -7°C° 0 mm 4 m/S 755 mmHg 85%
    10:00 -6°C° 0 mm 5 m/S 755 mmHg 81%
    11:00 -6°C° 0 mm 5 m/S 754 mmHg 77%
    12:00 -5°C° 0 mm 6 m/S 753 mmHg 73%
    13:00 -5°C° 0 mm 6 m/S 753 mmHg 74%
    14:00 -5°C° 0 mm 6 m/S 753 mmHg 74%
    15:00 -5°C° 0 mm 6 m/S 752 mmHg 75%
    16:00 -5°C° 0 mm 6 m/S 752 mmHg 76%
    17:00 -4°C° 0 mm 6 m/S 752 mmHg 77%
    18:00 -4°C° 0 mm 6 m/S 752 mmHg 78%
    19:00 -4°C° 0.1 mm 6 m/S 752 mmHg 79%
    20:00 -4°C° 0.1 mm 6 m/S 753 mmHg 80%
    21:00 -3°C° 0.1 mm 6 m/S 753 mmHg 81%
    22:00 -4°C° 0.1 mm 5 m/S 754 mmHg 76%
    23:00 -5°C° 0.1 mm 5 m/S 754 mmHg 71%
    Mehr zeigen